Location: Albany
(42.6526°N, 73.7562°W)
Time: 19:27:05
(UTC+00:00)

Cosmos 2112 Rocket - Pass Details

Date: 19 November 2019
Orbit: 756 x 788 km, 74.1° (Epoch: 05 December)

Event Time Altitude Azimuth Distance (km) Brightness Sun altitude
Rises 22:52:50 0° 203° (SSW) 3,198 7.7 -15.3°
Reaches altitude 10° 22:55:11 10° 205° (SSW) 2,280 7.0 -15.7°
Maximum altitude 23:00:21 74° 291° (WNW) 793 4.2 -16.7°
Drops below altitude 10° 23:05:36 10° 17° (NNE) 2,312 6.2 -17.6°
Enters shadow 23:06:26 - 18° (NNE) 2,636 6.5 -17.8°
